Bergman, AR

11:14 AM CST on February 12, 2016 (GMT -0600)
Boone County

Weather History for KHRO - October, 2012

Change the Weather History Date:

Sunday, October 21, 2012

  Actual Average Record
Temperature  
Mean Temperature 69 °F 58 °F  
Max Temperature 80 °F 69 °F 88 °F (1927)
Min Temperature 58 °F 46 °F 20 °F (1952)
Degree Days  
Heating Degree Days 0 8  
Month to date heating degree days 146 125  
Since 1 July heating degree days 169 168  
Cooling Degree Days 4 1  
Month to date cooling degree days 11 27  
Year to date cooling degree days 1933 1406  
Growing Degree Days 19 (Base 50)    
Moisture  
Dew Point 58 °F    
Average Humidity 68    
Maximum Humidity 79    
Minimum Humidity 56    
Precipitation  
Precipitation 0.00 in 0.12 in 1.76 in (1900)
Month to date precipitation 2.91 2.34  
Year to date precipitation 26.23 35.50  
Snow  
Snow 0.00 in 0.00 in - ()
Month to date snowfall 0.0 0.0  
Since 1 July snowfall 0.0 0.0  
Since 1 September snowfall 0.0 0.0  
Snow Depth 0.00 in    
Sea Level Pressure  
Sea Level Pressure 29.87 in    
Wind  
Wind Speed 10 mph (SSE)    
Max Wind Speed 21 mph    
Max Gust Speed 25 mph    
Visibility 10 miles    
Events      
T = Trace of Precipitation, MM = Missing Value Source: NWS Daily Summary

Daily Weather History Graph

Daily Weather History Graph

Search for Another Location

Airport or City:

Trip Planner

Search our weather history database for the weather conditions in past years. The results will help you decide how hot, cold, wet, or windy it might be!

Date:

Astronomy

Oct. 21, 2012 Rise Set
Actual Time 7:25 AM CDT 6:28 PM CDT
Civil Twilight 6:59 AM CDT 6:54 PM CDT
Nautical Twilight 6:29 AM CDT 7:24 PM CDT
Astronomical Twilight 5:59 AM CDT 7:54 PM CDT
Moon 1:43 PM CDT (10/21) No Moon Set
Length of Visible Light 11h 54m
Length of Day
11h 02m
Waxing Crescent, 45% of the Moon is Illuminated
Oct 21
Waxing Crescent
Oct 21
First Quarter
Oct 29
Full
Nov 6
Last Quarter
Nov 13
New

Hourly Weather History & Observations

Time (CDT) Temp. Dew Point Humidity Pressure Visibility Wind Dir Wind Speed Gust Speed Precip Events Conditions
12:53 AM 60.1 °F 46.0 °F 60% 29.84 in 10.0 mi SSE 9.2 mph - N/A   Clear
1:53 AM 62.1 °F 46.0 °F 56% 29.83 in 10.0 mi SSE 8.1 mph - N/A   Clear
2:53 AM 61.0 °F 46.9 °F 60% 29.84 in 10.0 mi SSE 6.9 mph - N/A   Clear
3:53 AM 59.0 °F 46.9 °F 64% 29.83 in 10.0 mi ESE 5.8 mph - N/A   Clear
4:53 AM 59.0 °F 48.0 °F 67% 29.84 in 10.0 mi ESE 4.6 mph - N/A   Clear
5:53 AM 60.1 °F 48.0 °F 64% 29.86 in 10.0 mi ESE 6.9 mph - N/A   Partly Cloudy
6:53 AM 61.0 °F 48.0 °F 62% 29.87 in 10.0 mi SE 8.1 mph - N/A   Overcast
7:53 AM 61.0 °F 50.0 °F 67% 29.88 in 10.0 mi SE 6.9 mph - N/A   Clear
8:53 AM 64.0 °F 54.0 °F 70% 29.89 in 10.0 mi SSE 6.9 mph - N/A   Scattered Clouds
9:53 AM 72.0 °F 59.0 °F 64% 29.90 in 10.0 mi South 10.4 mph - N/A   Clear
10:53 AM 75.9 °F 62.1 °F 62% 29.90 in 10.0 mi South 9.2 mph - N/A   Clear
11:53 AM 78.1 °F 63.0 °F 60% 29.89 in 10.0 mi South 8.1 mph - N/A   Clear
12:53 PM 79.0 °F 63.0 °F 58% 29.88 in 10.0 mi South 12.7 mph 19.6 mph N/A   Clear
1:53 PM 79.0 °F 63.0 °F 58% 29.87 in 10.0 mi South 16.1 mph - N/A   Clear
2:51 PM 77.0 °F 64.4 °F 65% 29.91 in 10.0 mi South 11.5 mph 21.9 mph N/A   Mostly Cloudy
2:53 PM 77.0 °F 64.0 °F 64% 29.87 in 10.0 mi South 16.1 mph 21.9 mph N/A   Mostly Cloudy
3:53 PM 75.9 °F 64.0 °F 67% 29.87 in 10.0 mi South 11.5 mph - N/A   Overcast
4:53 PM 75.9 °F 64.9 °F 69% 29.87 in 10.0 mi South 13.8 mph 20.7 mph N/A   Scattered Clouds
5:53 PM 73.9 °F 64.9 °F 73% 29.88 in 10.0 mi South 11.5 mph 19.6 mph N/A   Partly Cloudy
6:53 PM 72.0 °F 62.1 °F 71% 29.88 in 10.0 mi South 12.7 mph - N/A   Clear
7:53 PM 71.1 °F 63.0 °F 75% 29.88 in 10.0 mi South 10.4 mph - N/A   Clear
8:53 PM 71.1 °F 63.0 °F 75% 29.88 in 10.0 mi SSE 11.5 mph - N/A   Clear
9:53 PM 72.0 °F 64.0 °F 76% 29.89 in 10.0 mi South 11.5 mph - N/A   Clear
10:53 PM 73.0 °F 64.0 °F 73% 29.89 in 10.0 mi South 13.8 mph 20.7 mph N/A   Clear
11:53 PM 73.0 °F 64.0 °F 73% 29.90 in 10.0 mi South 9.2 mph - N/A   Partly Cloudy